DLH44C EDDF-LPPR

Flight info

Callsign DLH44C
Flight time N/A
Altitude 30000
Route SOBRA2L SOBRA Y180 DIK UN857 TOLVU/N0423F310 DCT RAPOR DCT GIMER DCT ESTOC UT300 PON UN872 ERIGA UZ218 FUJTI DCT ATLEN DCT INSID T326 ASPOR
Aircraft A21N/M-SDE2E3FGHIRWXY/LB1

Departure

Time 2026-05-05 10:28
Airport Frankfurt Main Airport (EDDF)

Arrival

Time N/A
Airport Francisco de Sá Carneiro Airport (LPPR)
Time Latitude Longitude Altitude Speed Heading
2026-05-05 09:41 50.04672 8.56064 363 ft 0 kts 321°
2026-05-05 10:16 50.04666 8.56071 366 ft 4 kts 321°
2026-05-05 10:16 50.04647 8.56095 366 ft 4 kts 319°
2026-05-05 10:16 50.04627 8.56124 365 ft 4 kts 314°
2026-05-05 10:17 50.04610 8.56156 366 ft 5 kts 293°
2026-05-05 10:17 50.04608 8.56187 366 ft 2 kts 249°
2026-05-05 10:17 50.04601 8.56162 364 ft 4 kts 249°
2026-05-05 10:17 50.04592 8.56123 361 ft 4 kts 249°
2026-05-05 10:18 50.04582 8.56083 364 ft 4 kts 250°
2026-05-05 10:18 50.04577 8.56060 363 ft 0 kts 250°
2026-05-05 10:21 50.04574 8.56048 362 ft 2 kts 249°
2026-05-05 10:21 50.04568 8.56023 365 ft 4 kts 248°
2026-05-05 10:21 50.04547 8.55978 362 ft 7 kts 218°
2026-05-05 10:21 50.04496 8.55942 365 ft 9 kts 196°
2026-05-05 10:22 50.04428 8.55913 362 ft 11 kts 195°
2026-05-05 10:22 50.04351 8.55925 366 ft 12 kts 161°
2026-05-05 10:22 50.04265 8.55953 362 ft 13 kts 199°
2026-05-05 10:22 50.04212 8.55832 359 ft 15 kts 250°
2026-05-05 10:23 50.04175 8.55677 360 ft 16 kts 253°
2026-05-05 10:23 50.04136 8.55510 360 ft 17 kts 250°
2026-05-05 10:23 50.04094 8.55327 363 ft 19 kts 250°
2026-05-05 10:23 50.04045 8.55127 360 ft 21 kts 250°
2026-05-05 10:24 50.03993 8.54910 361 ft 22 kts 249°
2026-05-05 10:24 50.03938 8.54678 362 ft 24 kts 250°
2026-05-05 10:24 50.03879 8.54433 356 ft 24 kts 250°
2026-05-05 10:24 50.03794 8.54200 352 ft 25 kts 247°
2026-05-05 10:25 50.03732 8.53941 354 ft 26 kts 249°
2026-05-05 10:25 50.03668 8.53675 349 ft 27 kts 249°
2026-05-05 10:25 50.03601 8.53403 351 ft 27 kts 249°
2026-05-05 10:25 50.03539 8.53147 346 ft 22 kts 249°
2026-05-05 10:26 50.03490 8.52944 350 ft 13 kts 249°
2026-05-05 10:26 50.03456 8.52816 344 ft 13 kts 246°
2026-05-05 10:26 50.03420 8.52676 338 ft 14 kts 249°
2026-05-05 10:26 50.03387 8.52601 339 ft 8 kts 203°
2026-05-05 10:27 50.03362 8.52595 341 ft 0 kts 181°
2026-05-05 10:27 50.03180 8.52595 341 ft 61 kts 179°
2026-05-05 10:27 50.02506 8.52603 341 ft 130 kts 179°
2026-05-05 10:27 50.01410 8.52618 338 ft 181 kts 179°
2026-05-05 10:28 50.00151 8.52621 910 ft 177 kts 180°
2026-05-05 10:28 49.98911 8.52737 1449 ft 183 kts 173°
2026-05-05 10:28 49.97604 8.52939 1878 ft 198 kts 178°
2026-05-05 10:28 49.96188 8.52877 2387 ft 209 kts 180°
2026-05-05 10:29 49.94691 8.52973 2898 ft 222 kts 177°
2026-05-05 10:29 49.93107 8.53099 3433 ft 230 kts 178°
2026-05-05 10:29 49.91510 8.53215 3896 ft 229 kts 178°
2026-05-05 10:29 49.89909 8.53325 4539 ft 232 kts 178°
2026-05-05 10:30 49.88840 8.53396 5019 ft 233 kts 178°
2026-05-05 10:30 49.87223 8.53363 5739 ft 233 kts 189°
2026-05-05 10:30 49.85618 8.52655 6208 ft 249 kts 200°
2026-05-05 10:30 49.83949 8.51678 6644 ft 263 kts 200°
2026-05-05 10:31 49.82218 8.50664 7278 ft 268 kts 200°
2026-05-05 10:31 49.80454 8.49644 7977 ft 272 kts 200°
2026-05-05 10:31 49.78674 8.48576 8692 ft 276 kts 205°
2026-05-05 10:31 49.77095 8.46870 9390 ft 282 kts 226°
2026-05-05 10:32 49.76073 8.44275 10021 ft 290 kts 250°
2026-05-05 10:32 49.75843 8.41085 10341 ft 311 kts 276°
2026-05-05 10:32 49.76334 8.37724 10666 ft 327 kts 284°
2026-05-05 10:32 49.76962 8.34308 11262 ft 332 kts 284°
2026-05-05 10:33 49.77578 8.30844 11949 ft 334 kts 283°
2026-05-05 10:33 49.78164 8.27397 12622 ft 336 kts 282°
2026-05-05 10:33 49.78745 8.23889 13318 ft 338 kts 282°
2026-05-05 10:33 49.79326 8.20329 13954 ft 341 kts 282°
2026-05-05 10:34 49.79900 8.16750 14546 ft 345 kts 281°
2026-05-05 10:34 49.80477 8.13124 15158 ft 349 kts 281°
2026-05-05 10:34 49.81063 8.09448 15757 ft 353 kts 281°
2026-05-05 10:34 49.81654 8.05736 16364 ft 357 kts 281°
2026-05-05 10:35 49.82250 8.01988 16963 ft 360 kts 281°
2026-05-05 10:35 49.82847 7.98204 17553 ft 363 kts 281°
2026-05-05 10:35 49.83449 7.94383 18118 ft 366 kts 281°
2026-05-05 10:35 49.84045 7.90585 18603 ft 369 kts 281°
2026-05-05 10:36 49.84653 7.86702 19094 ft 372 kts 281°
2026-05-05 10:36 49.85262 7.82799 19584 ft 374 kts 281°
2026-05-05 10:36 49.85876 7.78860 20061 ft 377 kts 281°
2026-05-05 10:36 49.86494 7.74900 20539 ft 379 kts 281°
2026-05-05 10:37 49.87125 7.70912 21024 ft 382 kts 281°
2026-05-05 10:37 49.87752 7.66880 21486 ft 385 kts 281°
2026-05-05 10:37 49.88378 7.62829 21942 ft 388 kts 281°
2026-05-05 10:37 49.89008 7.58753 22432 ft 390 kts 281°
2026-05-05 10:38 49.89639 7.54648 22923 ft 393 kts 281°
2026-05-05 10:38 49.90273 7.50510 23388 ft 395 kts 281°
2026-05-05 10:38 49.90905 7.46404 23776 ft 397 kts 281°
2026-05-05 10:38 49.91548 7.42211 24166 ft 399 kts 281°
2026-05-05 10:39 49.92189 7.38012 24577 ft 400 kts 280°
2026-05-05 10:39 49.92830 7.33796 24955 ft 402 kts 280°
2026-05-05 10:39 49.93473 7.29559 25328 ft 404 kts 280°
2026-05-05 10:39 49.94118 7.25301 25703 ft 406 kts 280°
2026-05-05 10:40 49.94763 7.21021 26063 ft 407 kts 279°
2026-05-05 10:40 49.95398 7.16778 26418 ft 409 kts 279°
2026-05-05 10:40 49.96044 7.12471 26786 ft 410 kts 279°
2026-05-05 10:40 49.96694 7.08139 27142 ft 412 kts 279°
2026-05-05 10:41 49.97343 7.03799 27489 ft 413 kts 279°
2026-05-05 10:41 49.97991 6.99437 27832 ft 414 kts 279°
2026-05-05 10:41 49.98639 6.95065 28151 ft 416 kts 279°
2026-05-05 10:41 49.99177 6.90654 28504 ft 413 kts 272°
2026-05-05 10:42 49.99105 6.81771 29183 ft 411 kts 263°
2026-05-05 10:42 49.98942 6.77326 29479 ft 413 kts 263°
2026-05-05 10:42 49.98789 6.72904 29772 ft 415 kts 263°
2026-05-05 10:43 49.98644 6.68419 29868 ft 415 kts 263°
2026-05-05 10:43 49.98350 6.59457 29847 ft 415 kts 262°
2026-05-05 10:43 49.97867 6.55066 29827 ft 410 kts 251°
2026-05-05 10:44 49.96882 6.50933 29824 ft 408 kts 244°
2026-05-05 10:44 49.94580 6.42868 29825 ft 408 kts 243°
2026-05-05 10:45 49.92292 6.34807 29850 ft 409 kts 244°
2026-05-05 10:45 49.90017 6.26767 29842 ft 409 kts 242°
2026-05-05 10:46 49.87704 6.18672 29841 ft 410 kts 244°
2026-05-05 10:46 49.85157 6.10820 29840 ft 406 kts 234°
2026-05-05 10:47 49.81876 6.03658 29843 ft 406 kts 232°
2026-05-05 10:47 49.78599 5.96592 29838 ft 407 kts 232°
2026-05-05 10:48 49.75302 5.89446 29843 ft 407 kts 233°
2026-05-05 10:48 49.72826 5.81519 29843 ft 415 kts 246°
2026-05-05 10:49 49.70908 5.73097 29841 ft 415 kts 246°
2026-05-05 10:49 49.68965 5.64687 29841 ft 415 kts 246°
2026-05-05 10:50 49.67010 5.56305 29839 ft 415 kts 246°
2026-05-05 10:50 49.65057 5.48000 29841 ft 415 kts 246°
2026-05-05 10:51 49.63075 5.39615 29866 ft 415 kts 246°
2026-05-05 10:51 49.61200 5.31131 30171 ft 418 kts 247°
2026-05-05 10:51 49.60294 5.26870 30499 ft 417 kts 247°